Time,TemperatureF,DewpointF,PressureIn,WindDirection,WindDirectionDegrees,WindSpeedMPH,WindSpeedGustMPH,Humidity,HourlyPrecipIn,Conditions,Clouds,dailyrainin,SoftwareType,DateUTC
2013-10-17 00:02:00,62.6,60.8,29.81,SSW,197,9.2,-999.9,94,-99.99,,,-99.99,,2013-10-17 04:02:00,
2013-10-17 00:08:00,62.6,60.8,29.81,SSW,197,9.2,-999.9,94,-99.99,,,-99.99,,2013-10-17 04:08:00,
2013-10-17 00:14:00,62.6,60.8,29.81,South,186,4.6,-999.9,94,-99.99,,,-99.99,,2013-10-17 04:14:00,
2013-10-17 00:20:00,62.6,60.8,29.81,South,186,4.6,-999.9,94,-99.99,,,-99.99,,2013-10-17 04:20:00,
2013-10-17 00:26:00,62.6,60.8,29.81,SSW,200,9.2,-999.9,94,-99.99,,,-99.99,,2013-10-17 04:26:00,
2013-10-17 00:32:00,62.6,60.8,29.81,SSW,192,1.2,-999.9,94,-99.99,,,-99.99,,2013-10-17 04:32:00,
2013-10-17 00:38:00,62.6,60.8,29.81,SSW,192,1.2,-999.9,94,-99.99,,,-99.99,,2013-10-17 04:38:00,
2013-10-17 00:44:00,62.6,60.8,29.81,SW,214,4.6,-999.9,94,-99.99,,,-99.99,,2013-10-17 04:44:00,
2013-10-17 00:50:00,62.6,60.8,29.81,SW,214,4.6,-999.9,94,-99.99,,,-99.99,,2013-10-17 04:50:00,
2013-10-17 00:56:00,62.6,60.8,29.80,SSW,209,1.2,-999.9,94,-99.99,,,-99.99,,2013-10-17 04:56:00,
2013-10-17 01:02:00,62.6,60.8,29.81,South,176,8.1,-999.9,94,-99.99,,,-99.99,,2013-10-17 05:02:00,
2013-10-17 01:08:00,62.6,60.8,29.81,South,176,8.1,-999.9,94,-99.99,,,-99.99,,2013-10-17 05:08:00,
2013-10-17 01:14:00,62.6,60.8,29.81,SSW,206,5.8,-999.9,94,-99.99,,,-99.99,,2013-10-17 05:14:00,
2013-10-17 01:20:00,62.6,60.8,29.81,SSW,206,5.8,-999.9,94,-99.99,,,-99.99,,2013-10-17 05:20:00,
2013-10-17 01:42:00,62.6,60.8,29.80,South,179,5.8,-999.9,94,-99.99,,,-99.99,,2013-10-17 05:42:00,
2013-10-17 01:48:00,62.6,60.8,29.80,South,179,5.8,-999.9,94,-99.99,,,-99.99,,2013-10-17 05:48:00,
2013-10-17 02:02:00,62.6,60.8,29.80,South,176,3.5,-999.9,94,-99.99,,,-99.99,,2013-10-17 06:02:00,
2013-10-17 02:08:00,62.6,60.8,29.80,South,176,3.5,-999.9,94,-99.99,,,-99.99,,2013-10-17 06:08:00,
2013-10-17 02:14:00,62.6,60.8,29.80,South,180,1.2,-999.9,94,-99.99,,,-99.99,,2013-10-17 06:14:00,
2013-10-17 02:20:00,62.6,60.8,29.80,South,180,1.2,-999.9,94,-99.99,,,-99.99,,2013-10-17 06:20:00,
2013-10-17 02:26:00,62.6,59.0,29.79,SSE,168,3.5,-999.9,88,-99.99,,,-99.99,,2013-10-17 06:26:00,
2013-10-17 02:32:00,62.6,60.8,29.79,South,187,4.6,-999.9,94,-99.99,,,-99.99,,2013-10-17 06:32:00,
2013-10-17 02:38:00,62.6,60.8,29.79,South,187,4.6,-999.9,94,-99.99,,,-99.99,,2013-10-17 06:38:00,
2013-10-17 02:44:00,62.6,59.0,29.79,South,186,1.2,-999.9,88,-99.99,,,-99.99,,2013-10-17 06:44:00,
2013-10-17 02:50:00,62.6,59.0,29.79,South,186,1.2,-999.9,88,-99.99,,,-99.99,,2013-10-17 06:50:00,
2013-10-17 02:56:00,62.6,59.0,29.79,South,173,4.6,-999.9,88,-99.99,,,-99.99,,2013-10-17 06:56:00,
2013-10-17 03:02:00,62.6,59.0,29.78,South,181,4.6,-999.9,88,-99.99,,,-99.99,,2013-10-17 07:02:00,
2013-10-17 03:08:00,62.6,59.0,29.78,South,181,4.6,-999.9,88,-99.99,,,-99.99,,2013-10-17 07:08:00,
2013-10-17 03:14:00,62.6,59.0,29.78,South,190,0.0,-999.9,88,-99.99,,,-99.99,,2013-10-17 07:14:00,
2013-10-17 03:20:00,62.6,59.0,29.78,South,190,0.0,-999.9,88,-99.99,,,-99.99,,2013-10-17 07:20:00,
2013-10-17 03:26:00,62.6,60.8,29.78,South,189,3.5,-999.9,94,-99.99,,,-99.99,,2013-10-17 07:26:00,
2013-10-17 03:32:00,62.6,60.8,29.78,SSW,201,3.5,-999.9,94,-99.99,,,-99.99,,2013-10-17 07:32:00,
2013-10-17 03:38:00,62.6,60.8,29.78,SSW,201,3.5,-999.9,94,-99.99,,,-99.99,,2013-10-17 07:38:00,
2013-10-17 03:44:00,62.6,60.8,29.78,SW,221,1.2,-999.9,94,-99.99,,,-99.99,,2013-10-17 07:44:00,
2013-10-17 03:50:00,62.6,60.8,29.78,SW,221,1.2,-999.9,94,-99.99,,,-99.99,,2013-10-17 07:50:00,
2013-10-17 03:56:00,62.6,60.8,29.78,SSW,199,8.1,-999.9,94,-99.99,,,-99.99,,2013-10-17 07:56:00,
2013-10-17 04:02:00,62.6,60.8,29.77,SSW,205,8.1,-999.9,94,-99.99,,,-99.99,,2013-10-17 08:02:00,
2013-10-17 04:08:00,62.6,60.8,29.77,SSW,205,8.1,-999.9,94,-99.99,,,-99.99,,2013-10-17 08:08:00,
2013-10-17 04:14:00,62.6,60.8,29.77,SSE,168,1.2,-999.9,94,-99.99,,,-99.99,,2013-10-17 08:14:00,
2013-10-17 04:20:00,62.6,60.8,29.77,SSE,168,1.2,-999.9,94,-99.99,,,-99.99,,2013-10-17 08:20:00,
2013-10-17 04:26:00,62.6,60.8,29.77,South,179,5.8,-999.9,94,-99.99,,,-99.99,,2013-10-17 08:26:00,
2013-10-17 04:32:00,62.6,60.8,29.77,SSW,194,4.6,-999.9,94,-99.99,,,-99.99,,2013-10-17 08:32:00,
2013-10-17 04:38:00,62.6,60.8,29.77,SSW,194,4.6,-999.9,94,-99.99,,,-99.99,,2013-10-17 08:38:00,
2013-10-17 04:44:00,62.6,60.8,29.77,SSW,198,4.6,-999.9,94,-99.99,,,-99.99,,2013-10-17 08:44:00,
2013-10-17 04:50:00,62.6,60.8,29.77,SSW,198,4.6,-999.9,94,-99.99,,,-99.99,,2013-10-17 08:50:00,
2013-10-17 04:56:00,62.6,60.8,29.77,SSW,199,6.9,-999.9,94,-99.99,,,-99.99,,2013-10-17 08:56:00,
2013-10-17 05:02:00,62.6,60.8,29.78,SW,236,5.8,-999.9,94,-99.99,,,-99.99,,2013-10-17 09:02:00,
2013-10-17 05:08:00,62.6,60.8,29.78,SW,236,5.8,-999.9,94,-99.99,,,-99.99,,2013-10-17 09:08:00,
2013-10-17 05:14:00,62.6,60.8,29.77,South,190,4.6,-999.9,94,-99.99,,,-99.99,,2013-10-17 09:14:00,
2013-10-17 05:20:00,62.6,60.8,29.77,South,190,4.6,-999.9,94,-99.99,,,-99.99,,2013-10-17 09:20:00,
2013-10-17 05:26:00,62.6,60.8,29.78,SSW,208,1.2,-999.9,94,-99.99,,,-99.99,,2013-10-17 09:26:00,
2013-10-17 05:32:00,62.6,60.8,29.78,SSW,194,4.6,-999.9,94,-99.99,,,-99.99,,2013-10-17 09:32:00,
2013-10-17 05:38:00,62.6,60.8,29.78,SSW,194,4.6,-999.9,94,-99.99,,,-99.99,,2013-10-17 09:38:00,
2013-10-17 05:44:00,62.6,60.8,29.78,SW,224,4.6,-999.9,94,-99.99,,,-99.99,,2013-10-17 09:44:00,
2013-10-17 05:50:00,62.6,60.8,29.78,SW,224,4.6,-999.9,94,-99.99,,,-99.99,,2013-10-17 09:50:00,
2013-10-17 06:02:00,62.6,60.8,29.78,SSW,202,8.1,-999.9,94,-99.99,,,-99.99,,2013-10-17 10:02:00,
2013-10-17 06:08:00,62.6,60.8,29.78,SSW,202,8.1,-999.9,94,-99.99,,,-99.99,,2013-10-17 10:08:00,
2013-10-17 06:14:00,62.6,60.8,29.78,SSW,202,4.6,-999.9,94,-99.99,,,-99.99,,2013-10-17 10:14:00,
2013-10-17 06:20:00,62.6,60.8,29.78,SSW,202,4.6,-999.9,94,-99.99,,,-99.99,,2013-10-17 10:20:00,
2013-10-17 06:26:00,62.6,60.8,29.78,SSW,199,6.9,-999.9,94,-99.99,,,-99.99,,2013-10-17 10:26:00,
2013-10-17 06:32:00,62.6,60.8,29.78,SSW,212,5.8,-999.9,94,-99.99,,,-99.99,,2013-10-17 10:32:00,
2013-10-17 06:38:00,62.6,60.8,29.78,SSW,212,5.8,-999.9,94,-99.99,,,-99.99,,2013-10-17 10:38:00,
2013-10-17 06:44:00,62.6,60.8,29.78,SSW,211,4.6,-999.9,94,-99.99,,,-99.99,,2013-10-17 10:44:00,
2013-10-17 06:50:00,62.6,60.8,29.78,SSW,211,4.6,-999.9,94,-99.99,,,-99.99,,2013-10-17 10:50:00,
2013-10-17 06:56:00,64.4,62.6,29.78,SSW,207,3.5,-999.9,94,-99.99,,,-99.99,,2013-10-17 10:56:00,
2013-10-17 07:02:00,62.6,60.8,29.78,SSW,192,6.9,-999.9,94,-99.99,,,-99.99,,2013-10-17 11:02:00,
2013-10-17 07:08:00,62.6,60.8,29.78,SSW,192,6.9,-999.9,94,-99.99,,,-99.99,,2013-10-17 11:08:00,
2013-10-17 07:14:00,62.6,60.8,29.78,SSW,203,1.2,-999.9,94,-99.99,,,-99.99,,2013-10-17 11:14:00,
2013-10-17 07:20:00,62.6,60.8,29.78,SSW,203,1.2,-999.9,94,-99.99,,,-99.99,,2013-10-17 11:20:00,
2013-10-17 07:26:00,64.4,62.6,29.78,SSW,204,9.2,-999.9,94,-99.99,,,-99.99,,2013-10-17 11:26:00,
2013-10-17 07:32:00,64.4,62.6,29.78,SW,218,4.6,-999.9,94,-99.99,,,-99.99,,2013-10-17 11:32:00,
2013-10-17 07:38:00,64.4,62.6,29.78,SW,218,4.6,-999.9,94,-99.99,,,-99.99,,2013-10-17 11:38:00,
2013-10-17 07:44:00,64.4,62.6,29.79,SW,216,4.6,-999.9,94,-99.99,,,-99.99,,2013-10-17 11:44:00,
2013-10-17 07:50:00,64.4,62.6,29.79,SW,216,4.6,-999.9,94,-99.99,,,-99.99,,2013-10-17 11:50:00,
2013-10-17 07:56:00,64.4,62.6,29.79,SSW,194,5.8,-999.9,94,-99.99,,,-99.99,,2013-10-17 11:56:00,
2013-10-17 08:02:00,62.6,60.8,29.79,SSW,203,8.1,-999.9,94,-99.99,,,-99.99,,2013-10-17 12:02:00,
2013-10-17 08:08:00,62.6,60.8,29.79,SSW,203,8.1,-999.9,94,-99.99,,,-99.99,,2013-10-17 12:08:00,
2013-10-17 08:14:00,62.6,60.8,29.79,SSW,194,10.4,-999.9,94,-99.99,,,-99.99,,2013-10-17 12:14:00,
2013-10-17 08:20:00,62.6,60.8,29.79,SSW,194,10.4,-999.9,94,-99.99,,,-99.99,,2013-10-17 12:20:00,
2013-10-17 08:26:00,62.6,60.8,29.79,SSW,208,9.2,-999.9,94,-99.99,,,-99.99,,2013-10-17 12:26:00,
2013-10-17 08:32:00,64.4,62.6,29.79,SSW,202,6.9,-999.9,94,-99.99,,,-99.99,,2013-10-17 12:32:00,
2013-10-17 08:38:00,64.4,62.6,29.79,SSW,202,6.9,-999.9,94,-99.99,,,-99.99,,2013-10-17 12:38:00,
2013-10-17 08:44:00,64.4,62.6,29.79,SSW,210,10.4,-999.9,94,-99.99,,,-99.99,,2013-10-17 12:44:00,
2013-10-17 08:50:00,64.4,62.6,29.79,SSW,210,10.4,-999.9,94,-99.99,,,-99.99,,2013-10-17 12:50:00,
2013-10-17 08:56:00,64.4,62.6,29.79,SSW,212,6.9,-999.9,94,-99.99,,,-99.99,,2013-10-17 12:56:00,
2013-10-17 09:02:00,64.4,62.6,29.79,SW,215,6.9,-999.9,94,-99.99,,,-99.99,,2013-10-17 13:02:00,
2013-10-17 09:08:00,64.4,62.6,29.79,SW,215,6.9,-999.9,94,-99.99,,,-99.99,,2013-10-17 13:08:00,
2013-10-17 09:14:00,64.4,62.6,29.79,SSW,210,5.8,-999.9,94,-99.99,,,-99.99,,2013-10-17 13:14:00,
2013-10-17 09:20:00,64.4,62.6,29.79,SSW,210,5.8,-999.9,94,-99.99,,,-99.99,,2013-10-17 13:20:00,
2013-10-17 09:26:00,64.4,62.6,29.79,SSW,192,5.8,-999.9,94,-99.99,,,-99.99,,2013-10-17 13:26:00,
2013-10-17 09:32:00,64.4,60.8,29.78,SW,219,6.9,-999.9,88,-99.99,,,-99.99,,2013-10-17 13:32:00,
2013-10-17 09:38:00,64.4,60.8,29.78,SW,219,6.9,-999.9,88,-99.99,,,-99.99,,2013-10-17 13:38:00,
2013-10-17 09:44:00,64.4,60.8,29.79,SSW,202,5.8,-999.9,88,-99.99,,,-99.99,,2013-10-17 13:44:00,
2013-10-17 09:50:00,64.4,60.8,29.79,SSW,202,5.8,-999.9,88,-99.99,,,-99.99,,2013-10-17 13:50:00,
2013-10-17 09:56:00,66.2,62.6,29.78,SSW,200,3.5,-999.9,88,-99.99,,,-99.99,,2013-10-17 13:56:00,
2013-10-17 10:02:00,66.2,62.6,29.79,SW,224,1.2,-999.9,88,-99.99,,,-99.99,,2013-10-17 14:02:00,
2013-10-17 10:08:00,66.2,62.6,29.79,SW,224,1.2,-999.9,88,-99.99,,,-99.99,,2013-10-17 14:08:00,
2013-10-17 10:14:00,66.2,62.6,29.78,SW,228,3.5,-999.9,88,-99.99,,,-99.99,,2013-10-17 14:14:00,
2013-10-17 10:20:00,66.2,62.6,29.78,SW,228,3.5,-999.9,88,-99.99,,,-99.99,,2013-10-17 14:20:00,
2013-10-17 10:26:00,66.2,62.6,29.78,WSW,241,3.5,-999.9,88,-99.99,,,-99.99,,2013-10-17 14:26:00,
2013-10-17 10:32:00,66.2,60.8,29.78,WSW,237,6.9,-999.9,83,-99.99,,,-99.99,,2013-10-17 14:32:00,
2013-10-17 10:38:00,66.2,60.8,29.78,WSW,237,6.9,-999.9,83,-99.99,,,-99.99,,2013-10-17 14:38:00,
2013-10-17 10:44:00,66.2,60.8,29.78,SW,228,6.9,-999.9,83,-99.99,,,-99.99,,2013-10-17 14:44:00,
2013-10-17 10:50:00,66.2,60.8,29.78,SW,228,6.9,-999.9,83,-99.99,,,-99.99,,2013-10-17 14:50:00,
2013-10-17 10:56:00,66.2,60.8,29.78,SSW,213,4.6,-999.9,83,-99.99,,,-99.99,,2013-10-17 14:56:00,
2013-10-17 11:02:00,68.0,62.6,29.78,WSW,248,9.2,-999.9,83,-99.99,,,-99.99,,2013-10-17 15:02:00,
2013-10-17 11:08:00,68.0,62.6,29.78,WSW,248,9.2,-999.9,83,-99.99,,,-99.99,,2013-10-17 15:08:00,
2013-10-17 11:14:00,68.0,62.6,29.78,SSW,200,8.1,-999.9,83,-99.99,,,-99.99,,2013-10-17 15:14:00,
2013-10-17 11:20:00,68.0,62.6,29.78,SSW,200,8.1,-999.9,83,-99.99,,,-99.99,,2013-10-17 15:20:00,
2013-10-17 11:26:00,68.0,62.6,29.77,SW,216,3.5,-999.9,83,-99.99,,,-99.99,,2013-10-17 15:26:00,
2013-10-17 11:32:00,68.0,62.6,29.76,SSW,212,5.8,-999.9,83,-99.99,,,-99.99,,2013-10-17 15:32:00,
2013-10-17 11:38:00,68.0,62.6,29.76,SSW,212,5.8,-999.9,83,-99.99,,,-99.99,,2013-10-17 15:38:00,
2013-10-17 11:44:00,68.0,60.8,29.76,SW,217,6.9,-999.9,78,-99.99,,,-99.99,,2013-10-17 15:44:00,
2013-10-17 11:50:00,68.0,60.8,29.76,SW,217,6.9,-999.9,78,-99.99,,,-99.99,,2013-10-17 15:50:00,
2013-10-17 11:56:00,69.8,62.6,29.75,SSW,211,6.9,-999.9,78,-99.99,,,-99.99,,2013-10-17 15:56:00,
2013-10-17 12:02:00,69.8,60.8,29.74,SSW,204,4.6,-999.9,73,-99.99,,,-99.99,,2013-10-17 16:02:00,
2013-10-17 12:08:00,69.8,60.8,29.74,SSW,204,4.6,-999.9,73,-99.99,,,-99.99,,2013-10-17 16:08:00,
2013-10-17 12:14:00,69.8,60.8,29.74,SW,214,10.4,-999.9,73,-99.99,,,-99.99,,2013-10-17 16:14:00,
2013-10-17 12:20:00,69.8,60.8,29.74,SW,214,10.4,-999.9,73,-99.99,,,-99.99,,2013-10-17 16:20:00,
2013-10-17 12:26:00,69.8,60.8,29.74,SSW,198,4.6,-999.9,73,-99.99,,,-99.99,,2013-10-17 16:26:00,
2013-10-17 12:32:00,71.6,60.8,29.73,SSW,209,6.9,-999.9,69,-99.99,,,-99.99,,2013-10-17 16:32:00,
2013-10-17 12:38:00,71.6,60.8,29.73,SSW,209,6.9,-999.9,69,-99.99,,,-99.99,,2013-10-17 16:38:00,
2013-10-17 12:44:00,71.6,60.8,29.73,SW,219,10.4,-999.9,69,-99.99,,,-99.99,,2013-10-17 16:44:00,
2013-10-17 12:50:00,71.6,60.8,29.73,SW,219,10.4,-999.9,69,-99.99,,,-99.99,,2013-10-17 16:50:00,
2013-10-17 12:56:00,71.6,60.8,29.72,SSW,213,4.6,-999.9,69,-99.99,,,-99.99,,2013-10-17 16:56:00,
2013-10-17 13:02:00,71.6,60.8,29.72,SSW,212,3.5,-999.9,69,-99.99,,,-99.99,,2013-10-17 17:02:00,
2013-10-17 13:08:00,71.6,60.8,29.72,SSW,212,3.5,-999.9,69,-99.99,,,-99.99,,2013-10-17 17:08:00,
2013-10-17 13:14:00,71.6,60.8,29.71,SW,221,9.2,-999.9,69,-99.99,,,-99.99,,2013-10-17 17:14:00,
2013-10-17 13:20:00,71.6,60.8,29.71,SW,221,9.2,-999.9,69,-99.99,,,-99.99,,2013-10-17 17:20:00,
2013-10-17 13:26:00,71.6,60.8,29.71,SSW,203,5.8,-999.9,69,-99.99,,,-99.99,,2013-10-17 17:26:00,
2013-10-17 13:32:00,71.6,60.8,29.71,SSW,199,5.8,-999.9,69,-99.99,,,-99.99,,2013-10-17 17:32:00,
2013-10-17 13:38:00,71.6,60.8,29.71,SSW,199,5.8,-999.9,69,-99.99,,,-99.99,,2013-10-17 17:38:00,
2013-10-17 13:44:00,71.6,60.8,29.71,South,186,2.3,-999.9,69,-99.99,,,-99.99,,2013-10-17 17:44:00,
2013-10-17 13:50:00,71.6,60.8,29.71,South,186,2.3,-999.9,69,-99.99,,,-99.99,,2013-10-17 17:50:00,
2013-10-17 13:56:00,71.6,60.8,29.70,SSW,201,3.5,-999.9,69,-99.99,,,-99.99,,2013-10-17 17:56:00,
2013-10-17 14:02:00,73.4,60.8,29.70,SSW,208,1.2,-999.9,65,-99.99,,,-99.99,,2013-10-17 18:02:00,
2013-10-17 14:08:00,73.4,60.8,29.70,SSW,208,1.2,-999.9,65,-99.99,,,-99.99,,2013-10-17 18:08:00,
2013-10-17 14:14:00,73.4,59.0,29.70,SSW,211,2.3,-999.9,61,-99.99,,,-99.99,,2013-10-17 18:14:00,
2013-10-17 14:20:00,73.4,59.0,29.70,SSW,211,2.3,-999.9,61,-99.99,,,-99.99,,2013-10-17 18:20:00,
2013-10-17 14:26:00,73.4,59.0,29.69,South,185,0.0,-999.9,61,-99.99,,,-99.99,,2013-10-17 18:26:00,
2013-10-17 14:32:00,73.4,59.0,29.68,South,181,1.2,-999.9,61,-99.99,,,-99.99,,2013-10-17 18:32:00,
2013-10-17 14:38:00,73.4,59.0,29.68,South,181,1.2,-999.9,61,-99.99,,,-99.99,,2013-10-17 18:38:00,
2013-10-17 14:44:00,73.4,59.0,29.67,SSW,196,0.0,-999.9,61,-99.99,,,-99.99,,2013-10-17 18:44:00,
2013-10-17 14:50:00,73.4,59.0,29.67,SSW,196,0.0,-999.9,61,-99.99,,,-99.99,,2013-10-17 18:50:00,
2013-10-17 14:56:00,73.4,59.0,29.67,SSW,202,0.0,-999.9,61,-99.99,,,-99.99,,2013-10-17 18:56:00,
2013-10-17 15:02:00,73.4,59.0,29.67,SW,214,4.6,-999.9,61,-99.99,,,-99.99,,2013-10-17 19:02:00,
2013-10-17 15:08:00,73.4,59.0,29.67,SW,214,4.6,-999.9,61,-99.99,,,-99.99,,2013-10-17 19:08:00,
2013-10-17 15:14:00,73.4,59.0,29.67,SSW,213,9.2,-999.9,61,-99.99,,,-99.99,,2013-10-17 19:14:00,
2013-10-17 15:20:00,75.2,60.8,29.67,SSW,203,8.1,-999.9,61,-99.99,,,-99.99,,2013-10-17 19:20:00,
2013-10-17 15:26:00,75.2,60.8,29.67,SSW,203,8.1,-999.9,61,-99.99,,,-99.99,,2013-10-17 19:26:00,
2013-10-17 15:32:00,75.2,60.8,29.68,SW,222,10.4,-999.9,61,-99.99,,,-99.99,,2013-10-17 19:32:00,
2013-10-17 15:38:00,75.2,60.8,29.68,SW,222,10.4,-999.9,61,-99.99,,,-99.99,,2013-10-17 19:38:00,
2013-10-17 15:44:00,73.4,60.8,29.67,SSW,202,6.9,-999.9,65,-99.99,,,-99.99,,2013-10-17 19:44:00,
2013-10-17 15:50:00,73.4,60.8,29.67,SSW,202,6.9,-999.9,65,-99.99,,,-99.99,,2013-10-17 19:50:00,
2013-10-17 15:56:00,73.4,60.8,29.67,South,186,8.1,-999.9,65,-99.99,,,-99.99,,2013-10-17 19:56:00,
2013-10-17 16:02:00,73.4,60.8,29.68,South,184,8.1,-999.9,65,-99.99,,,-99.99,,2013-10-17 20:02:00,
2013-10-17 16:08:00,73.4,60.8,29.68,South,184,8.1,-999.9,65,-99.99,,,-99.99,,2013-10-17 20:08:00,
2013-10-17 16:14:00,73.4,60.8,29.68,South,190,5.8,-999.9,65,-99.99,,,-99.99,,2013-10-17 20:14:00,
2013-10-17 16:20:00,73.4,60.8,29.68,South,190,5.8,-999.9,65,-99.99,,,-99.99,,2013-10-17 20:20:00,
2013-10-17 16:26:00,73.4,62.6,29.67,SSW,198,4.6,-999.9,69,-99.99,,,-99.99,,2013-10-17 20:26:00,
2013-10-17 16:32:00,71.6,62.6,29.67,South,183,13.8,-999.9,73,-99.99,,,-99.99,,2013-10-17 20:32:00,
2013-10-17 16:38:00,71.6,62.6,29.67,South,183,13.8,-999.9,73,-99.99,,,-99.99,,2013-10-17 20:38:00,
2013-10-17 16:44:00,71.6,62.6,29.67,South,175,8.1,-999.9,73,-99.99,,,-99.99,,2013-10-17 20:44:00,
2013-10-17 16:50:00,71.6,62.6,29.67,South,175,8.1,-999.9,73,-99.99,,,-99.99,,2013-10-17 20:50:00,
2013-10-17 16:56:00,71.6,62.6,29.67,South,185,5.8,-999.9,73,-99.99,,,-99.99,,2013-10-17 20:56:00,
2013-10-17 17:02:00,69.8,60.8,29.67,South,182,11.5,-999.9,73,-99.99,,,-99.99,,2013-10-17 21:02:00,
2013-10-17 17:08:00,69.8,60.8,29.67,South,182,11.5,-999.9,73,-99.99,,,-99.99,,2013-10-17 21:08:00,
2013-10-17 17:14:00,69.8,62.6,29.66,South,176,12.7,-999.9,78,-99.99,,,-99.99,,2013-10-17 21:14:00,
2013-10-17 17:20:00,69.8,62.6,29.66,South,176,12.7,-999.9,78,-99.99,,,-99.99,,2013-10-17 21:20:00,
2013-10-17 17:26:00,68.0,60.8,29.66,South,187,16.1,-999.9,78,-99.99,,,-99.99,,2013-10-17 21:26:00,
2013-10-17 17:32:00,68.0,60.8,29.66,South,183,18.4,-999.9,78,-99.99,,,-99.99,,2013-10-17 21:32:00,
2013-10-17 17:38:00,68.0,60.8,29.66,South,183,18.4,-999.9,78,-99.99,,,-99.99,,2013-10-17 21:38:00,
2013-10-17 17:44:00,68.0,60.8,29.66,South,182,15.0,-999.9,78,-99.99,,,-99.99,,2013-10-17 21:44:00,
2013-10-17 17:50:00,68.0,60.8,29.66,South,182,15.0,-999.9,78,-99.99,,,-99.99,,2013-10-17 21:50:00,
2013-10-17 17:56:00,68.0,60.8,29.65,South,183,10.4,-999.9,78,-99.99,,,-99.99,,2013-10-17 21:56:00,
2013-10-17 18:02:00,68.0,62.6,29.65,South,186,15.0,-999.9,83,-99.99,,,-99.99,,2013-10-17 22:02:00,
2013-10-17 18:08:00,68.0,62.6,29.65,South,186,15.0,-999.9,83,-99.99,,,-99.99,,2013-10-17 22:08:00,
2013-10-17 18:14:00,68.0,62.6,29.65,South,180,15.0,-999.9,83,-99.99,,,-99.99,,2013-10-17 22:14:00,
2013-10-17 18:20:00,68.0,62.6,29.65,South,180,15.0,-999.9,83,-99.99,,,-99.99,,2013-10-17 22:20:00,
2013-10-17 18:26:00,68.0,62.6,29.66,SSW,196,2.3,-999.9,83,-99.99,,,-99.99,,2013-10-17 22:26:00,
2013-10-17 18:32:00,66.2,60.8,29.66,South,184,13.8,-999.9,83,-99.99,,,-99.99,,2013-10-17 22:32:00,
2013-10-17 18:38:00,66.2,60.8,29.66,South,184,13.8,-999.9,83,-99.99,,,-99.99,,2013-10-17 22:38:00,
2013-10-17 18:44:00,66.2,62.6,29.65,South,181,13.8,-999.9,88,-99.99,,,-99.99,,2013-10-17 22:44:00,
2013-10-17 18:50:00,66.2,62.6,29.65,South,181,13.8,-999.9,88,-99.99,,,-99.99,,2013-10-17 22:50:00,
2013-10-17 18:56:00,66.2,62.6,29.66,South,187,11.5,-999.9,88,-99.99,,,-99.99,,2013-10-17 22:56:00,
2013-10-17 19:02:00,66.2,62.6,29.65,South,180,10.4,-999.9,88,-99.99,,,-99.99,,2013-10-17 23:02:00,
2013-10-17 19:08:00,66.2,62.6,29.65,South,180,10.4,-999.9,88,-99.99,,,-99.99,,2013-10-17 23:08:00,
2013-10-17 19:14:00,66.2,62.6,29.65,South,178,9.2,-999.9,88,-99.99,,,-99.99,,2013-10-17 23:14:00,
2013-10-17 19:20:00,66.2,62.6,29.65,South,178,9.2,-999.9,88,-99.99,,,-99.99,,2013-10-17 23:20:00,
2013-10-17 19:26:00,64.4,60.8,29.66,South,177,10.4,-999.9,88,-99.99,,,-99.99,,2013-10-17 23:26:00,
2013-10-17 19:32:00,64.4,62.6,29.66,South,174,10.4,-999.9,94,-99.99,,,-99.99,,2013-10-17 23:32:00,
2013-10-17 19:38:00,64.4,62.6,29.66,South,174,10.4,-999.9,94,-99.99,,,-99.99,,2013-10-17 23:38:00,
2013-10-17 20:32:00,64.4,62.6,29.64,South,180,16.1,-999.9,94,-99.99,,,-99.99,,2013-10-18 00:32:00,
2013-10-17 20:38:00,64.4,62.6,29.64,South,180,16.1,-999.9,94,-99.99,,,-99.99,,2013-10-18 00:38:00,
2013-10-17 20:44:00,64.4,62.6,29.64,South,180,15.0,-999.9,94,-99.99,,,-99.99,,2013-10-18 00:44:00,
2013-10-17 20:50:00,64.4,62.6,29.64,South,180,15.0,-999.9,94,-99.99,,,-99.99,,2013-10-18 00:50:00,
2013-10-17 20:56:00,66.2,62.6,29.64,South,179,6.9,-999.9,88,-99.99,,,-99.99,,2013-10-18 00:56:00,
2013-10-17 21:02:00,66.2,64.4,29.64,South,182,15.0,-999.9,94,-99.99,,,-99.99,,2013-10-18 01:02:00,
2013-10-17 21:08:00,66.2,64.4,29.64,South,182,15.0,-999.9,94,-99.99,,,-99.99,,2013-10-18 01:08:00,
2013-10-17 21:14:00,66.2,64.4,29.63,South,182,11.5,-999.9,94,-99.99,,,-99.99,,2013-10-18 01:14:00,
2013-10-17 21:20:00,66.2,64.4,29.63,South,182,11.5,-999.9,94,-99.99,,,-99.99,,2013-10-18 01:20:00,
2013-10-17 21:26:00,66.2,64.4,29.64,South,184,8.1,-999.9,94,-99.99,,,-99.99,,2013-10-18 01:26:00,
2013-10-17 21:32:00,66.2,64.4,29.63,South,184,8.1,-999.9,94,-99.99,,,-99.99,,2013-10-18 01:32:00,
2013-10-17 21:38:00,66.2,64.4,29.63,South,184,8.1,-999.9,94,-99.99,,,-99.99,,2013-10-18 01:38:00,
2013-10-17 21:44:00,66.2,64.4,29.63,South,177,13.8,-999.9,94,-99.99,,,-99.99,,2013-10-18 01:44:00,
2013-10-17 21:50:00,66.2,64.4,29.63,South,177,13.8,-999.9,94,-99.99,,,-99.99,,2013-10-18 01:50:00,
2013-10-17 21:56:00,66.2,64.4,29.64,South,177,11.5,-999.9,94,-99.99,,,-99.99,,2013-10-18 01:56:00,
2013-10-17 22:02:00,66.2,64.4,29.63,South,188,8.1,-999.9,94,-99.99,,,-99.99,,2013-10-18 02:02:00,
2013-10-17 22:08:00,66.2,64.4,29.63,South,188,8.1,-999.9,94,-99.99,,,-99.99,,2013-10-18 02:08:00,
2013-10-17 22:14:00,66.2,64.4,29.63,South,184,11.5,-999.9,94,-99.99,,,-99.99,,2013-10-18 02:14:00,
2013-10-17 22:20:00,66.2,64.4,29.63,South,184,11.5,-999.9,94,-99.99,,,-99.99,,2013-10-18 02:20:00,
2013-10-17 22:26:00,66.2,64.4,29.62,South,180,9.2,-999.9,94,-99.99,,,-99.99,,2013-10-18 02:26:00,
2013-10-17 22:32:00,66.2,64.4,29.62,South,175,8.1,-999.9,94,-99.99,,,-99.99,,2013-10-18 02:32:00,
2013-10-17 22:38:00,66.2,64.4,29.62,South,175,8.1,-999.9,94,-99.99,,,-99.99,,2013-10-18 02:38:00,
2013-10-17 22:44:00,66.2,64.4,29.62,SSW,197,10.4,-999.9,94,-99.99,,,-99.99,,2013-10-18 02:44:00,
2013-10-17 22:50:00,66.2,64.4,29.62,SSW,197,10.4,-999.9,94,-99.99,,,-99.99,,2013-10-18 02:50:00,
2013-10-17 22:56:00,66.2,62.6,29.62,SSW,208,11.5,-999.9,88,-99.99,,,-99.99,,2013-10-18 02:56:00,
2013-10-17 23:02:00,66.2,64.4,29.61,South,181,4.6,-999.9,94,-99.99,,,-99.99,,2013-10-18 03:02:00,
2013-10-17 23:08:00,66.2,64.4,29.61,South,181,4.6,-999.9,94,-99.99,,,-99.99,,2013-10-18 03:08:00,
2013-10-17 23:14:00,66.2,62.6,29.61,South,181,8.1,-999.9,88,-99.99,,,-99.99,,2013-10-18 03:14:00,
2013-10-17 23:20:00,66.2,62.6,29.61,South,181,8.1,-999.9,88,-99.99,,,-99.99,,2013-10-18 03:20:00,
2013-10-17 23:26:00,66.2,64.4,29.60,South,183,10.4,-999.9,94,-99.99,,,-99.99,,2013-10-18 03:26:00,
2013-10-17 23:32:00,66.2,62.6,29.59,South,185,13.8,-999.9,88,-99.99,,,-99.99,,2013-10-18 03:32:00,
2013-10-17 23:38:00,66.2,62.6,29.59,South,185,13.8,-999.9,88,-99.99,,,-99.99,,2013-10-18 03:38:00,
2013-10-17 23:44:00,66.2,62.6,29.59,South,180,16.1,-999.9,88,-99.99,,,-99.99,,2013-10-18 03:44:00,
2013-10-17 23:50:00,66.2,62.6,29.59,South,180,16.1,-999.9,88,-99.99,,,-99.99,,2013-10-18 03:50:00,
2013-10-17 23:56:00,66.2,62.6,29.59,SSW,197,9.2,-999.9,88,-99.99,,,-99.99,,2013-10-18 03:56:00,